OK,112,64,1041,112,2014-10-01T01:40:00,0,28072811,187324
OK,112,64,1041,112,2014-10-01T01:45:00,0,28073258,187324
OK,112,64,1041,112,2014-10-01T01:50:00,0,28073706,187324
OK,112,64,1041,112,2014-10-01T01:55:00,0,28074024,187324
OK,112,64,1041,112,2014-10-01T02:05:00,0,28074913,187324
OK,112,64,1041,112,2014-10-01T02:10:00,0,28075362,187324
OK,112,64,1041,112,2014-10-01T02:15:00,0,28075811,187324
OK,112,64,1041,112,2014-10-01T02:20:00,0,28076194,187324
OK,112,64,1041,112,2014-10-01T02:25:00,0,28076643,187324
OK,112,64,1041,112,2014-10-01T02:30:00,0,28077092,187324
OK,112,64,1041,112,2014-10-01T02:35:00,0,28077541,187324
OK,112,64,1041,112,2014-10-01T02:40:00,0,28077944,187324
OK,157,46,1041,157,2014-10-01T02:45:00,1,28078393,187324
OK,157,46,1041,157,2014-10-01T02:50:00,0,28078838,187324
OK,157,46,1041,157,2014-10-01T02:55:00,0,28079286,187324
OK,157,46,1041,157,2014-10-01T03:00:00,0,28079729,187324
OK,157,46,1041,157,2014-10-01T03:05:00,0,28080178,187324
OK,157,46,1041,157,2014-10-01T03:10:00,0,28080512,187324
OK,157,46,1041,157,2014-10-01T03:15:00,0,28080961,187324
OK,129,56,1041,129,2014-10-01T03:20:00,1,28081410,187324
OK,121,59,1041,121,2014-10-01T03:25:00,2,28081857,187324
OK,113,64,1041,113,2014-10-01T03:30:00,1,28082306,187324
OK,113,64,1041,113,2014-10-01T03:35:00,0,28082739,187324
OK,154,47,1041,154,2014-10-01T03:40:00,1,28083171,187324
OK,161,45,1041,161,2014-10-01T03:45:00,3,28083620,187324
OK,161,45,1041,161,2014-10-01T03:50:00,3,28084069,187324
OK,137,52,1041,137,2014-10-01T03:55:00,1,28084510,187324
OK,211,34,1041,211,2014-10-01T04:00:00,1,28084935,187324
OK,211,34,1041,211,2014-10-01T04:05:00,1,28085384,187324
OK,168,43,1041,168,2014-10-01T04:10:00,1,28085829,187324
OK,168,43,1041,168,2014-10-01T04:15:00,1,28086278,187324
OK,168,43,1041,168,2014-10-01T04:20:00,0,28086720,187324
OK,140,51,1041,140,2014-10-01T04:25:00,2,28087169,187324
OK,133,54,1041,133,2014-10-01T04:30:00,5,28087614,187324
OK,133,54,1041,133,2014-10-01T04:35:00,3,28088063,187324
OK,141,51,1041,141,2014-10-01T04:40:00,0,28088487,187324
OK,141,51,1041,141,2014-10-01T04:45:00,0,28088936,187324
OK,120,60,1041,120,2014-10-01T04:50:00,6,28089366,187324
OK,139,52,1041,139,2014-10-01T04:55:00,3,28089815,187324
OK,137,52,1041,137,2014-10-01T05:00:00,5,28090264,187324
OK,151,47,1041,151,2014-10-01T05:05:00,6,28090608,187324
OK,156,46,1041,156,2014-10-01T05:10:00,4,28091057,187324
OK,158,45,1041,158,2014-10-01T05:15:00,5,28091506,187324
OK,146,49,1041,146,2014-10-01T05:20:00,4,28091923,187324
OK,121,59,1041,121,2014-10-01T05:25:00,4,28092372,187324
OK,110,65,1041,110,2014-10-01T05:30:00,3,28092816,187324
OK,130,55,1041,130,2014-10-01T05:35:00,1,28093257,187324
OK,216,33,1041,216,2014-10-01T05:40:00,4,28093688,187324
OK,200,36,1041,200,2014-10-01T05:45:00,6,28094137,187324
OK,155,46,1041,155,2014-10-01T05:50:00,3,28094548,187324
OK,183,39,1041,183,2014-10-01T05:55:00,2,28094993,187324
OK,176,41,1041,176,2014-10-01T06:00:00,4,28095440,187324
OK,187,38,1041,187,2014-10-01T06:05:00,3,28095889,187324
OK,181,40,1041,181,2014-10-01T06:10:00,6,28096302,187324
OK,171,42,1041,171,2014-10-01T06:15:00,6,28096751,187324
OK,123,58,1041,123,2014-10-01T06:20:00,1,28097185,187324
OK,152,47,1041,152,2014-10-01T06:25:00,4,28097634,187324
OK,171,42,1041,171,2014-10-01T06:30:00,9,28098083,187324
OK,173,41,1041,173,2014-10-01T06:35:00,11,28098520,187324
OK,162,44,1041,162,2014-10-01T06:40:00,5,28098964,187324
OK,166,43,1041,166,2014-10-01T06:45:00,2,28099412,187324
OK,118,61,1041,118,2014-10-01T06:50:00,7,28099755,187324
OK,135,53,1041,135,2014-10-01T06:55:00,8,28100204,187324
OK,152,47,1041,152,2014-10-01T07:00:00,1,28100511,187324
OK,131,55,1041,131,2014-10-01T07:10:00,5,28101331,187324
OK,131,55,1041,131,2014-10-01T07:15:00,5,28101780,187324
OK,153,47,1041,153,2014-10-01T07:20:00,2,28102216,187324
OK,151,47,1041,151,2014-10-01T07:25:00,3,28102665,187324
OK,134,54,1041,134,2014-10-01T07:30:00,4,28103093,187324
OK,123,58,1041,123,2014-10-01T07:35:00,5,28103539,187324
OK,121,59,1041,121,2014-10-01T07:40:00,4,28103984,187324
OK,161,45,1041,161,2014-10-01T07:45:00,11,28104429,187324
OK,166,43,1041,166,2014-10-01T07:50:00,13,28104870,187324
OK,155,46,1041,155,2014-10-01T07:55:00,7,28105315,187324
OK,165,43,1041,165,2014-10-01T08:00:00,7,28105755,187324
OK,191,37,1041,191,2014-10-01T08:05:00,4,28106204,187324
OK,152,47,1041,152,2014-10-01T08:10:00,0,28106641,187324
OK,152,47,1041,152,2014-10-01T08:15:00,0,28107047,187324
OK,188,38,1041,188,2014-10-01T08:20:00,2,28107479,187324
OK,194,37,1041,194,2014-10-01T08:25:00,3,28107928,187324
OK,166,43,1041,166,2014-10-01T08:30:00,2,28108367,187324
OK,139,52,1041,139,2014-10-01T08:35:00,1,28108816,187324
OK,124,58,1041,124,2014-10-01T08:40:00,3,28109244,187324
OK,124,58,1041,124,2014-10-01T08:45:00,6,28109693,187324
OK,125,57,1041,125,2014-10-01T08:50:00,4,28110036,187324
OK,145,49,1041,145,2014-10-01T09:00:00,3,28110908,187324
OK,163,44,1041,163,2014-10-01T09:05:00,5,28111357,187324
OK,168,43,1041,168,2014-10-01T09:10:00,3,28111786,187324
OK,146,49,1041,146,2014-10-01T09:15:00,3,28112235,187324
OK,146,49,1041,146,2014-10-01T09:20:00,3,28112576,187324
OK,120,60,1041,120,2014-10-01T09:30:00,4,28113449,187324
OK,147,49,1041,147,2014-10-01T09:35:00,2,28113898,187324
OK,167,43,1041,167,2014-10-01T09:40:00,1,28114330,187324
OK,167,43,1041,167,2014-10-01T09:45:00,0,28114779,187324
OK,194,37,1041,194,2014-10-01T09:50:00,1,28115133,187324
OK,139,52,1041,139,2014-10-01T10:00:00,3,28115994,187324
OK,151,47,1041,151,2014-10-01T10:05:00,4,28116443,187324
OK,168,43,1041,168,2014-10-01T10:10:00,2,28116851,187324
OK,168,43,1041,168,2014-10-01T10:15:00,0,28117300,187324
OK,113,64,1041,113,2014-10-01T10:20:00,1,28117725,187324
OK,147,49,1041,147,2014-10-01T10:25:00,6,28118174,187324
OK,152,47,1041,152,2014-10-01T10:30:00,6,28118619,187324
OK,152,47,1041,152,2014-10-01T10:35:00,3,28119066,187324
OK,125,57,1041,125,2014-10-01T10:40:00,1,28119510,187324
OK,131,55,1041,131,2014-10-01T10:45:00,3,28119958,187324
OK,131,55,1041,131,2014-10-01T10:50:00,2,28120406,187324
OK,165,43,1041,165,2014-10-01T10:55:00,1,28120855,187324
OK,149,48,1041,149,2014-10-01T11:00:00,4,28121238,187324
OK,140,51,1041,140,2014-10-01T11:05:00,4,28121687,187324
OK,187,38,1041,187,2014-10-01T11:10:00,4,28122125,187324
OK,205,35,1041,205,2014-10-01T11:15:00,3,28122574,187324
OK,162,44,1041,162,2014-10-01T11:20:00,1,28123015,187324
OK,162,44,1041,162,2014-10-01T11:25:00,1,28123464,187324
OK,162,44,1041,162,2014-10-01T11:30:00,0,28123896,187324
OK,156,46,1041,156,2014-10-01T11:35:00,3,28124345,187324
OK,156,46,1041,156,2014-10-01T11:40:00,3,28124747,187324
OK,145,49,1041,145,2014-10-01T11:45:00,2,28125196,187324
OK,150,48,1041,150,2014-10-01T11:50:00,5,28125625,187324
OK,139,52,1041,139,2014-10-01T11:55:00,8,28126074,187324
OK,133,54,1041,133,2014-10-01T12:00:00,5,28126426,187324
OK,142,51,1041,142,2014-10-01T12:10:00,3,28127324,187324
OK,108,67,1041,108,2014-10-01T12:15:00,3,28127773,187324
OK,108,67,1041,108,2014-10-01T12:20:00,3,28128201,187324
OK,150,48,1041,150,2014-10-01T12:25:00,1,28128650,187324
OK,150,48,1041,150,2014-10-01T12:30:00,1,28129085,187324
OK,156,46,1041,156,2014-10-01T12:35:00,2,28129534,187324
OK,171,42,1041,171,2014-10-01T12:40:00,2,28129968,187324
OK,174,41,1041,174,2014-10-01T12:45:00,1,28130417,187324
OK,140,51,1041,140,2014-10-01T12:50:00,1,28130845,187324
OK,158,45,1041,158,2014-10-01T12:55:00,5,28131294,187324
OK,157,46,1041,157,2014-10-01T13:00:00,5,28131731,187324
OK,149,48,1041,149,2014-10-01T13:05:00,2,28132180,187324
OK,150,48,1041,150,2014-10-01T13:10:00,2,28132618,187324
OK,177,40,1041,177,2014-10-01T13:15:00,2,28133065,187324
OK,153,47,1041,153,2014-10-01T13:20:00,1,28133503,187324
OK,172,42,1041,172,2014-10-01T13:25:00,4,28133952,187324
OK,165,43,1041,165,2014-10-01T13:30:00,5,28134391,187324
OK,157,46,1041,157,2014-10-01T13:35:00,2,28134840,187324
OK,159,45,1041,159,2014-10-01T13:40:00,1,28135259,187324
OK,159,45,1041,159,2014-10-01T13:45:00,1,28135708,187324
OK,159,45,1041,159,2014-10-01T13:50:00,0,28136145,187324
OK,159,45,1041,159,2014-10-01T13:55:00,0,28136594,187324
OK,116,62,1041,116,2014-10-01T14:00:00,1,28137034,187324
OK,116,62,1041,116,2014-10-01T14:05:00,1,28137483,187324
OK,137,52,1041,137,2014-10-01T14:10:00,4,28137917,187324
OK,200,36,1041,200,2014-10-01T14:15:00,2,28138366,187324
OK,135,53,1041,135,2014-10-01T14:20:00,1,28138794,187324
OK,153,47,1041,153,2014-10-01T14:25:00,2,28139243,187324
OK,172,42,1041,172,2014-10-01T14:30:00,1,28139654,187324
OK,92,78,1041,92,2014-10-01T14:35:00,1,28140103,187324
OK,172,42,1041,172,2014-10-01T14:40:00,0,28140545,187324
OK,129,56,1041,129,2014-10-01T14:45:00,3,28140994,187324
OK,114,63,1041,114,2014-10-01T14:50:00,5,28141420,187324
OK,132,54,1041,132,2014-10-01T14:55:00,4,28141869,187324
OK,150,48,1041,150,2014-10-01T15:00:00,1,28142297,187324
OK,148,48,1041,148,2014-10-01T15:05:00,1,28142746,187324
OK,149,48,1041,149,2014-10-01T15:10:00,1,28143173,187324
OK,148,48,1041,148,2014-10-01T15:15:00,0,28143622,187324
OK,142,51,1041,142,2014-10-01T15:20:00,2,28144070,187324
OK,140,51,1041,140,2014-10-01T15:25:00,0,28144519,187324
OK,137,52,1041,137,2014-10-01T15:30:00,1,28144940,187324
OK,163,44,1041,163,2014-10-01T15:35:00,2,28145354,187324
OK,164,44,1041,164,2014-10-01T15:40:00,2,28145803,187324
OK,139,52,1041,139,2014-10-01T15:45:00,1,28146252,187324
OK,125,57,1041,125,2014-10-01T15:50:00,6,28146701,187324
OK,127,57,1041,127,2014-10-01T15:55:00,7,28147109,187324
OK,148,48,1041,148,2014-10-01T16:00:00,2,28147553,187324
OK,162,44,1041,162,2014-10-01T16:05:00,2,28148002,187324
OK,159,45,1041,159,2014-10-01T16:10:00,2,28148403,187324
OK,149,48,1041,149,2014-10-01T16:20:00,0,28149291,187324
OK,361,20,1041,361,2014-10-01T16:25:00,1,28149740,187324
OK,144,50,1041,144,2014-10-01T16:30:00,1,28150166,187324
OK,144,50,1041,144,2014-10-01T16:35:00,1,28150615,187324
OK,145,49,1041,145,2014-10-01T16:40:00,1,28151033,187324
OK,111,65,1041,111,2014-10-01T16:45:00,1,28151482,187324
OK,111,65,1041,111,2014-10-01T16:50:00,1,28151931,187324
OK,133,54,1041,133,2014-10-01T17:00:00,1,28152380,187324
OK,133,54,1041,133,2014-10-01T17:05:00,0,28152826,187324
OK,133,54,1041,133,2014-10-01T17:10:00,0,28153273,187324
OK,133,54,1041,133,2014-10-01T17:15:00,0,28153722,187324
OK,133,54,1041,133,2014-10-01T17:20:00,0,28154132,187324
OK,126,57,1041,126,2014-10-01T17:25:00,2,28154581,187324
OK,126,57,1041,126,2014-10-01T17:30:00,0,28155023,187324
OK,162,44,1041,162,2014-10-01T17:35:00,1,28155471,187324
OK,162,44,1041,162,2014-10-01T17:40:00,1,28155889,187324
OK,162,44,1041,162,2014-10-01T17:45:00,0,28156338,187324
OK,99,73,1041,99,2014-10-01T17:50:00,1,28156786,187324
OK,99,73,1041,99,2014-10-01T17:55:00,1,28157225,187324
OK,99,73,1041,99,2014-10-01T18:00:00,0,28157655,187324
OK,99,73,1041,99,2014-10-01T18:05:00,0,28158103,187324
OK,99,73,1041,99,2014-10-01T18:10:00,0,28158547,187324
OK,99,73,1041,99,2014-10-01T18:15:00,0,28158993,187324
OK,99,73,1041,99,2014-10-01T18:20:00,0,28159439,187324
OK,171,42,1041,171,2014-10-01T18:25:00,1,28159774,187324
OK,141,51,1041,141,2014-10-01T18:35:00,2,28160672,187324
OK,120,60,1041,120,2014-10-01T18:40:00,0,28161110,187324
OK,120,60,1041,120,2014-10-01T18:45:00,0,28161559,187324
OK,120,60,1041,120,2014-10-01T18:50:00,0,28161976,187324
OK,120,60,1041,120,2014-10-01T18:55:00,0,28162425,187324
OK,120,60,1041,120,2014-10-01T19:00:00,0,28162819,187324
OK,120,60,1041,120,2014-10-01T19:05:00,0,28163258,187324
OK,120,60,1041,120,2014-10-01T19:10:00,0,28163706,187324
OK,120,60,1041,120,2014-10-01T19:15:00,0,28164155,187324
OK,120,60,1041,120,2014-10-01T19:20:00,0,28164586,187324
OK,120,60,1041,120,2014-10-01T19:25:00,0,28165035,187324
OK,120,60,1041,120,2014-10-01T19:30:00,0,28165460,187324
OK,120,60,1041,120,2014-10-01T19:35:00,0,28165908,187324
OK,120,60,1041,120,2014-10-01T19:40:00,0,28166349,187324
OK,120,60,1041,120,2014-10-01T19:45:00,0,28166711,187324
OK,120,60,1041,120,2014-10-01T19:50:00,0,28167160,187324
OK,147,49,1041,147,2014-10-01T19:55:00,2,28167589,187324
OK,147,49,1041,147,2014-10-01T20:00:00,2,28168022,187324
OK,141,51,1041,141,2014-10-01T20:05:00,2,28168471,187324
OK,114,63,1041,114,2014-10-01T20:10:00,1,28168916,187324
OK,114,63,1041,114,2014-10-01T20:15:00,0,28169365,187324
OK,114,63,1041,114,2014-10-01T20:20:00,0,28169813,187324
OK,114,63,1041,114,2014-10-01T20:25:00,0,28170239,187324
OK,114,63,1041,114,2014-10-01T20:30:00,0,28170684,187324
OK,114,63,1041,114,2014-10-01T20:35:00,0,28171132,187324
OK,114,63,1041,114,2014-10-01T20:40:00,0,28171569,187324
OK,114,63,1041,114,2014-10-01T20:45:00,0,28172015,187324
OK,114,63,1041,114,2014-10-01T20:50:00,0,28172463,187324
OK,114,63,1041,114,2014-10-01T20:55:00,0,28172909,187324
OK,114,63,1041,114,2014-10-01T21:00:00,0,28173355,187324
OK,114,63,1041,114,2014-10-01T21:05:00,0,28173804,187324
OK,114,63,1041,114,2014-10-01T21:10:00,0,28174245,187324
OK,108,67,1041,108,2014-10-01T21:15:00,1,28174694,187324
OK,108,67,1041,108,2014-10-01T21:20:00,1,28175120,187324
OK,108,67,1041,108,2014-10-01T21:25:00,0,28175516,187324
OK,108,67,1041,108,2014-10-01T21:30:00,0,28175965,187324
OK,108,67,1041,108,2014-10-01T21:35:00,0,28176414,187324
OK,108,67,1041,108,2014-10-01T21:40:00,0,28176863,187324
OK,108,67,1041,108,2014-10-01T21:45:00,0,28177219,187324
OK,108,67,1041,108,2014-10-01T21:50:00,0,28177659,187324
OK,108,67,1041,108,2014-10-01T21:55:00,0,28178105,187324
OK,108,67,1041,108,2014-10-01T22:00:00,0,28178554,187324
OK,108,67,1041,108,2014-10-01T22:05:00,0,28179001,187324
OK,108,67,1041,108,2014-10-01T22:10:00,0,28179435,187324
OK,108,67,1041,108,2014-10-01T22:15:00,0,28179878,187324
OK,117,61,1041,117,2014-10-01T22:20:00,1,28180325,187324
OK,117,61,1041,117,2014-10-01T22:25:00,0,28180723,187324
OK,117,61,1041,117,2014-10-01T22:30:00,0,28181172,187324
OK,117,61,1041,117,2014-10-01T22:35:00,0,28181596,187324
OK,117,61,1041,117,2014-10-01T22:40:00,0,28182044,187324
OK,117,61,1041,117,2014-10-01T22:45:00,0,28182491,187324
OK,117,61,1041,117,2014-10-01T22:50:00,0,28182940,187324
OK,117,61,1041,117,2014-10-01T22:55:00,0,28183357,187324
OK,117,61,1041,117,2014-10-01T23:00:00,0,28183790,187324
OK,117,61,1041,117,2014-10-01T23:05:00,0,28184235,187324
OK,117,61,1041,117,2014-10-01T23:10:00,0,28184684,187324
OK,117,61,1041,117,2014-10-01T23:15:00,0,28185119,187324
OK,117,61,1041,117,2014-10-01T23:20:00,0,28185567,187324
OK,117,61,1041,117,2014-10-01T23:25:00,0,28185998,187324
OK,117,61,1041,117,2014-10-01T23:30:00,0,28186390,187324
OK,117,61,1041,117,2014-10-01T23:40:00,0,28187237,187324
OK,117,61,1041,117,2014-10-01T23:55:00,0,28188569,187324
OK,117,61,1041,117,2014-10-02T00:05:00,0,28189454,187324
OK,117,61,1041,117,2014-10-02T00:10:00,0,28189876,187324
OK,117,61,1041,117,2014-10-02T00:15:00,0,28190325,187324
OK,117,61,1041,117,2014-10-02T00:20:00,0,28190678,187324
OK,117,61,1041,117,2014-10-02T00:30:00,0,28191576,187324
OK,117,61,1041,117,2014-10-02T00:35:00,0,28191882,187324
OK,117,61,1041,117,2014-10-02T00:45:00,0,28192764,187324
OK,117,61,1041,117,2014-10-02T00:50:00,0,28193208,187324
OK,117,61,1041,117,2014-10-02T00:55:00,0,28193575,187324
OK,117,61,1041,117,2014-10-02T01:05:00,0,28194473,187324
OK,117,61,1041,117,2014-10-02T01:10:00,0,28194922,187324
OK,117,61,1041,117,2014-10-02T01:15:00,0,28195158,187324
OK,117,61,1041,117,2014-10-02T01:25:00,0,28196056,187324
OK,117,61,1041,117,2014-10-02T01:30:00,0,28196340,187324
OK,117,61,1041,117,2014-10-02T01:35:00,0,28196789,187324
OK,117,61,1041,117,2014-10-02T01:40:00,0,28197212,187324
OK,117,61,1041,117,2014-10-02T01:45:00,0,28197661,187324
OK,117,61,1041,117,2014-10-02T01:50:00,0,28198109,187324
OK,117,61,1041,117,2014-10-02T01:55:00,0,28198557,187324
OK,117,61,1041,117,2014-10-02T02:00:00,0,28199006,187324
OK,117,61,1041,117,2014-10-02T02:05:00,0,28199378,187324
OK,117,61,1041,117,2014-10-02T02:10:00,0,28199820,187324
OK,117,61,1041,117,2014-10-02T02:15:00,0,28200262,187324
OK,117,61,1041,117,2014-10-02T02:20:00,0,28200705,187324
OK,117,61,1041,117,2014-10-02T02:25:00,0,28201154,187324
OK,79,91,1041,79,2014-10-02T02:30:00,1,28201585,187324
OK,79,91,1041,79,2014-10-02T02:45:00,0,28202483,187324
OK,79,91,1041,79,2014-10-02T02:50:00,0,28202925,187324
OK,79,91,1041,79,2014-10-02T02:55:00,0,28203373,187324
OK,79,91,1041,79,2014-10-02T03:00:00,0,28203808,187324
OK,79,91,1041,79,2014-10-02T03:10:00,0,28204257,187324
OK,144,50,1041,144,2014-10-02T03:25:00,0,28204706,187324
OK,144,50,1041,144,2014-10-02T03:30:00,0,28205155,187324
OK,166,43,1041,166,2014-10-02T03:35:00,1,28205583,187324
OK,166,43,1041,166,2014-10-02T03:40:00,0,28206030,187324
OK,128,56,1041,128,2014-10-02T03:45:00,1,28206413,187324
OK,128,56,1041,128,2014-10-02T03:55:00,0,28207311,187324
OK,128,56,1041,128,2014-10-02T04:00:00,0,28207730,187324
OK,128,56,1041,128,2014-10-02T04:05:00,0,28208179,187324
OK,128,56,1041,128,2014-10-02T04:10:00,0,28208606,187324
OK,128,56,1041,128,2014-10-02T04:15:00,0,28209055,187324
OK,128,56,1041,128,2014-10-02T04:20:00,0,28209493,187324
OK,128,56,1041,128,2014-10-02T04:25:00,0,28209942,187324
OK,138,52,1041,138,2014-10-02T04:30:00,1,28210365,187324
OK,138,52,1041,138,2014-10-02T04:35:00,1,28210814,187324
OK,132,54,1041,132,2014-10-02T04:40:00,4,28211239,187324
OK,131,55,1041,131,2014-10-02T04:45:00,1,28211683,187324
OK,131,55,1041,131,2014-10-02T04:50:00,0,28212061,187324
OK,204,35,1041,204,2014-10-02T05:00:00,0,28212939,187324
OK,153,47,1041,153,2014-10-02T05:05:00,2,28213388,187324
OK,154,47,1041,154,2014-10-02T05:10:00,0,28213826,187324
OK,176,41,1041,176,2014-10-02T05:15:00,2,28214275,187324
OK,176,41,1041,176,2014-10-02T05:20:00,0,28214688,187324
OK,175,41,1041,175,2014-10-02T05:25:00,5,28215137,187324
OK,187,38,1041,187,2014-10-02T05:30:00,3,28215553,187324
OK,187,38,1041,187,2014-10-02T05:35:00,0,28216002,187324
OK,158,45,1041,158,2014-10-02T05:40:00,2,28216341,187324
OK,204,35,1041,204,2014-10-02T05:45:00,1,28216781,187324
OK,204,35,1041,204,2014-10-02T05:50:00,0,28217228,187324
OK,162,44,1041,162,2014-10-02T05:55:00,9,28217677,187324
OK,162,44,1041,162,2014-10-02T06:00:00,8,28218116,187324
OK,162,44,1041,162,2014-10-02T06:05:00,3,28218565,187324
OK,160,45,1041,160,2014-10-02T06:10:00,0,28218985,187324
OK,150,48,1041,150,2014-10-02T06:15:00,9,28219434,187324
OK,132,54,1041,132,2014-10-02T06:20:00,9,28219807,187324
OK,157,46,1041,157,2014-10-02T06:30:00,5,28220690,187324
OK,142,51,1041,142,2014-10-02T06:35:00,3,28221139,187324
OK,173,41,1041,173,2014-10-02T06:40:00,2,28221520,187324
OK,176,41,1041,176,2014-10-02T06:45:00,3,28221806,187324
OK,169,42,1041,169,2014-10-02T07:00:00,5,28222400,187324
OK,103,70,1041,103,2014-10-02T07:10:00,3,28223280,187324
OK,134,54,1041,134,2014-10-02T07:15:00,1,28223715,187324
OK,134,54,1041,134,2014-10-02T07:20:00,0,28224163,187324
OK,129,56,1041,129,2014-10-02T07:25:00,1,28224518,187324
OK,168,43,1041,168,2014-10-02T07:35:00,4,28225416,187324
OK,166,43,1041,166,2014-10-02T07:40:00,3,28225738,187324
OK,184,39,1041,184,2014-10-02T07:50:00,3,28226628,187324
OK,180,40,1041,180,2014-10-02T07:55:00,7,28227077,187324
OK,167,43,1041,167,2014-10-02T08:00:00,5,28227492,187324
OK,136,53,1041,136,2014-10-02T08:05:00,3,28227941,187324
OK,110,65,1041,110,2014-10-02T08:10:00,0,28228300,187324
OK,125,57,1041,125,2014-10-02T08:20:00,1,28229159,187324
OK,155,46,1041,155,2014-10-02T08:25:00,4,28229608,187324
OK,140,51,1041,140,2014-10-02T08:30:00,2,28229958,187324
OK,153,47,1041,153,2014-10-02T08:40:00,0,28230773,187324
OK,153,47,1041,153,2014-10-02T08:45:00,0,28231221,187324
OK,143,50,1041,143,2014-10-02T08:50:00,3,28231645,187324
OK,143,50,1041,143,2014-10-02T08:55:00,3,28232094,187324
OK,158,45,1041,158,2014-10-02T09:00:00,0,28232436,187324
OK,158,45,1041,158,2014-10-02T09:10:00,0,28232885,187324
OK,160,45,1041,160,2014-10-02T09:15:00,0,28233334,187324
OK,160,45,1041,160,2014-10-02T09:20:00,0,28233758,187324
OK,143,50,1041,143,2014-10-02T09:25:00,1,28234207,187324
OK,143,50,1041,143,2014-10-02T09:30:00,0,28234540,187324
OK,139,52,1041,139,2014-10-02T09:40:00,2,28235416,187324
OK,151,47,1041,151,2014-10-02T09:45:00,1,28235865,187324
OK,151,47,1041,151,2014-10-02T09:50:00,0,28236308,187324
OK,157,46,1041,157,2014-10-02T09:55:00,3,28236755,187324
OK,157,46,1041,157,2014-10-02T10:00:00,3,28237158,187324
OK,157,46,1041,157,2014-10-02T10:05:00,0,28237605,187324
OK,111,65,1041,111,2014-10-02T10:10:00,1,28238054,187324
OK,111,65,1041,111,2014-10-02T10:15:00,1,28238501,187324
OK,125,57,1041,125,2014-10-02T10:20:00,3,28238942,187324
OK,118,61,1041,118,2014-10-02T10:25:00,1,28239391,187324
OK,118,61,1041,118,2014-10-02T10:30:00,1,28239821,187324
OK,147,49,1041,147,2014-10-02T10:35:00,2,28240270,187324
OK,141,51,1041,141,2014-10-02T10:40:00,2,28240714,187324
OK,141,51,1041,141,2014-10-02T10:45:00,2,28241163,187324
OK,136,53,1041,136,2014-10-02T10:50:00,0,28241595,187324
OK,151,47,1041,151,2014-10-02T10:55:00,1,28242043,187324
OK,151,47,1041,151,2014-10-02T11:00:00,0,28242439,187324
OK,151,47,1041,151,2014-10-02T11:05:00,0,28242888,187324
OK,187,38,1041,187,2014-10-02T11:10:00,2,28243337,187324
OK,187,38,1041,187,2014-10-02T11:15:00,0,28243662,187324
OK,188,38,1041,188,2014-10-02T11:20:00,3,28244100,187324
OK,188,38,1041,188,2014-10-02T11:25:00,3,28244529,187324
OK,256,28,1041,256,2014-10-02T11:30:00,0,28244978,187324
OK,106,68,1041,106,2014-10-02T11:35:00,2,28245427,187324
OK,106,68,1041,106,2014-10-02T11:40:00,2,28245833,187324
OK,106,68,1041,106,2014-10-02T11:45:00,0,28246282,187324
OK,138,52,1041,138,2014-10-02T11:50:00,5,28246719,187324
OK,135,53,1041,135,2014-10-02T11:55:00,3,28247168,187324
OK,127,57,1041,127,2014-10-02T12:00:00,3,28247614,187324
OK,143,50,1041,143,2014-10-02T12:05:00,0,28248044,187324
OK,143,50,1041,143,2014-10-02T12:10:00,0,28248493,187324
OK,177,40,1041,177,2014-10-02T12:15:00,2,28248940,187324
OK,177,40,1041,177,2014-10-02T12:20:00,0,28249368,187324
OK,110,65,1041,110,2014-10-02T12:25:00,6,28249812,187324
OK,110,65,1041,110,2014-10-02T12:30:00,5,28250231,187324
OK,149,48,1041,149,2014-10-02T12:35:00,3,28250629,187324
OK,160,45,1041,160,2014-10-02T13:20:00,3,28251954,187324
OK,160,45,1041,160,2014-10-02T13:30:00,0,28252538,187324
OK,160,45,1041,160,2014-10-02T13:35:00,0,28252980,187324
OK,160,45,1041,160,2014-10-02T13:40:00,0,28253397,187324
OK,152,47,1041,152,2014-10-02T13:50:00,2,28254251,187324
OK,131,55,1041,131,2014-10-02T13:55:00,4,28254572,187324
OK,151,47,1041,151,2014-10-02T14:10:00,2,28255149,187324
OK,140,51,1041,140,2014-10-02T14:15:00,1,28255598,187324
OK,140,51,1041,140,2014-10-02T14:20:00,0,28256026,187324
OK,140,51,1041,140,2014-10-02T14:25:00,0,28256475,187324
OK,150,48,1041,150,2014-10-02T14:30:00,2,28256903,187324
OK,155,46,1041,155,2014-10-02T14:35:00,2,28257352,187324
OK,131,55,1041,131,2014-10-02T14:40:00,1,28257793,187324
OK,130,55,1041,130,2014-10-02T14:45:00,1,28258241,187324
OK,149,48,1041,149,2014-10-02T14:50:00,5,28258674,187324
OK,137,52,1041,137,2014-10-02T14:55:00,9,28259120,187324
OK,126,57,1041,126,2014-10-02T15:00:00,5,28259569,187324
OK,126,57,1041,126,2014-10-02T15:05:00,0,28260016,187324
OK,126,57,1041,126,2014-10-02T15:10:00,0,28260449,187324
OK,126,57,1041,126,2014-10-02T15:15:00,0,28260898,187324
OK,126,57,1041,126,2014-10-02T15:20:00,0,28261338,187324
OK,163,44,1041,163,2014-10-02T15:25:00,2,28261720,187324
OK,124,58,1041,124,2014-10-02T15:40:00,3,28263043,187324
OK,177,40,1041,177,2014-10-02T15:45:00,3,28263481,187324
OK,117,61,1041,117,2014-10-02T15:50:00,1,28263922,187324
OK,117,61,1041,117,2014-10-02T15:55:00,0,28264324,187324
OK,127,57,1041,127,2014-10-02T16:00:00,1,28264773,187324
OK,127,57,1041,127,2014-10-02T16:05:00,1,28265211,187324